[[{"header":{"parameterUnit":"m.s-1","parameterCategory":1,"la1":30.2991,"la2":30.254,"lo1":-89.0895,"lo2":-89.0444,"dy":0.0017,"dx":0.0017,"nx":28,"ny":28,"refTime":"2025-07-09T21:00:00:Z","depth":0,"parameterNumber":2,"parameterNumberName":"U-component_of_WINDS"},"data":[0,0,0,0,0,0,0,0,0,0,0,0,0,0,0,0,0,0,0,0,0,0,0,0,0,0,0,0,0,0,0,0,0,0,0,0,0,0,0,0,0,0,0,0,0,0,0,0,0,0,0,0,0,0,0,0,0,0,4.061,4.0611,0,4.075,4.0751,4.0753,4.0681,4.0677,4.0674,4.067,4.0817,4.0824,4.0831,0,0,0,0,0,0,0,0,0,0,0,0,0,4.0281,4.0288,4.061,4.0611,4.0613,4.075,4.0751,4.0753,4.0682,4.0677,4.0673,4.0669,4.0814,4.0823,4.0832,0,0,0,0,0,0,0,0,0,0,0,0,0,4.0423,4.029,4.0609,4.0594,4.0594,4.0749,4.0752,4.0754,4.0683,4.0677,4.0672,4.0666,4.0812,4.0822,4.0833,4.1013,0,0,4.0867,4.0872,0,0,0,0,0,0,0,0,4.0415,4.0435,4.0594,4.0595,4.0595,4.0692,4.0689,4.0841,4.0684,4.0649,4.067,4.0664,4.078,4.0793,4.0832,4.102,4.1026,4.0868,4.0875,4.0879,4.0883,0,0,0,0,0,0,0,4.0406,4.0429,4.0665,4.0597,4.0597,4.058,4.0594,4.0718,4.0744,4.0652,4.0647,4.0664,4.0779,4.0822,4.0835,4.1028,4.0868,4.0877,4.0884,4.0889,4.1368,4.1374,0,0,0,0,0,0,4.0396,4.0421,4.0661,4.0669,4.049,4.0591,4.0606,4.0667,4.0743,4.0749,4.0669,4.066,4.0805,4.0822,4.084,4.1053,4.0879,4.089,4.0896,4.1362,4.137,4.1376,0,0,0,0,0,0,4.0389,4.0418,4.0655,4.0544,4.0573,4.0602,4.0671,4.0673,4.0714,4.0756,4.076,4.0707,4.0802,4.0824,4.097,4.1058,4.0895,4.0905,4.1355,4.1364,4.1373,4.1483,0,0,0,0,0,0,4.038,4.0416,4.0485,4.0546,4.0579,4.0783,4.0676,4.0679,4.0733,4.0724,4.0793,4.0799,4.0799,4.0954,4.0981,4.107,4.0913,4.1347,4.1359,4.137,4.1472,4.1495,4.1515,0,0,0,0,0,4.0369,4.0511,4.0488,4.0518,4.0665,4.0788,4.0807,4.0803,4.0741,4.081,4.0836,4.0796,4.1044,4.0969,4.0999,4.1093,4.1342,4.1356,4.1369,4.1462,4.1491,4.1514,0,0,0,0,0,0,4.0461,4.0519,4.0494,4.0661,4.072,4.0775,4.0862,4.0834,4.0912,4.09,4.0893,4.091,4.106,4.1091,4.1007,4.127,4.1183,4.1203,4.1244,4.1271,4.1292,4.1281,4.0923,0,0,0,0,0,4.0501,4.0595,4.0641,4.0783,4.0814,4.0833,4.0887,4.0879,4.094,4.0964,4.1001,4.1063,4.1154,4.1214,4.1301,4.1476,4.1489,4.1555,4.1577,4.1594,4.1612,4.1705,4.1734,4.1421,4.1421,4.1421,0,0,4.0584,4.0627,4.0687,4.0803,4.0847,4.0945,4.0855,4.0962,4.1035,4.0981,4.112,4.1149,4.1217,4.1378,4.145,4.1408,4.1701,4.1612,4.1625,4.1634,4.1722,4.1752,4.1778,4.1431,4.1429,4.1427,0,0,4.0784,4.0827,4.0949,4.0996,4.1063,4.1075,4.1104,4.1164,4.1181,4.132,4.1281,4.1367,4.1525,4.1574,4.162,4.1838,4.1804,4.1866,4.1979,4.207,4.2094,4.2116,4.2192,4.222,4.1884,4.1884,4.1884,0,4.0879,4.1024,4.1016,4.1126,4.1178,4.1132,4.1256,4.1301,4.1395,4.1431,4.1383,4.1578,4.1621,4.1791,4.1844,4.1884,4.1916,4.1858,4.2091,4.2113,4.2133,4.2206,4.2234,4.1891,4.189,4.189,4.1889,0,4.1137,4.1238,4.1328,4.1418,4.1479,4.1596,4.1606,4.1669,4.1656,4.1673,4.1814,4.1863,4.1958,4.1998,4.1987,4.2167,4.2138,4.2091,4.2004,4.217,4.2238,4.2266,4.1901,4.1899,4.1897,4.1895,0,0,4.14,4.1482,4.1515,4.1554,4.1625,4.1703,4.1817,4.1908,4.1962,4.2028,4.2123,4.2257,4.2212,4.2264,4.2258,4.2338,4.2505,4.228,4.2282,4.2319,4.2705,4.2739,4.2771,4.2483,4.2489,4.2493,4.2698,0,4.1605,4.1803,4.1798,4.1982,4.2075,4.2032,4.2131,4.2185,4.2204,4.2285,4.2306,4.24,4.2335,4.2366,4.2443,4.2468,4.2582,4.2454,4.2571,4.2575,4.2554,4.2807,4.2844,4.3036,4.2725,4.273,4.2733,0,4.187,4.1942,4.2135,4.219,4.2228,4.2318,4.2399,4.2478,4.2538,4.2546,4.2603,4.2584,4.2699,4.2609,4.2768,4.268,4.2728,4.2748,4.2755,4.2765,4.2664,4.2823,4.3097,4.3126,4.2775,4.2772,4.2769,0,4.2041,4.2187,4.232,4.2355,4.2423,4.2486,4.2518,4.2572,4.2627,4.2699,4.2734,4.2819,4.2866,4.2932,4.2936,4.287,4.3096,4.3006,4.3105,4.3105,4.3154,4.3151,4.3439,4.3187,4.3187,4.3186,4.3185,0,4.2269,4.2388,4.2397,4.248,4.2611,4.2605,4.2736,4.2762,4.281,4.2897,4.2866,4.2948,4.2948,4.3032,4.3036,4.3166,4.3188,4.3197,4.3196,4.3199,4.3198,4.3229,4.3216,4.3194,4.3192,4.3191,4.3189,0,4.2482,4.2493,4.2635,4.2687,4.2703,4.2798,4.2843,4.2921,4.2935,4.3045,4.307,4.3094,4.3191,4.3201,4.3315,4.3317,4.3473,4.3459,4.3452,4.3449,4.3547,4.3537,4.3864,4.3906,4.3629,4.3631,4.3634,0,4.2626,4.2717,4.2778,4.2832,4.2867,4.2956,4.301,4.3007,4.3066,4.314,4.3209,4.3302,4.3376,4.3532,4.356,4.3646,4.3633,4.3741,4.3646,4.3645,4.3632,4.3626,4.3635,4.376,4.3763,4.3765,4.3767,0,4.2881,4.2881,4.296,4.3041,4.3107,4.3171,4.3231,4.3278,4.3282,4.3349,4.3446,4.3504,4.3618,4.371,4.3794,4.3827,4.3798,4.3797,4.3824,4.3828,4.3819,4.3823,4.3501,4.379,4.3788,4.3786,4.3785,4.3784,4.3063,4.314,4.3195,4.3283,4.3328,4.3384,4.3459,4.3482,4.3563,4.3654,4.3648,4.3755,4.3811,4.3921,4.396,4.4043,4.4007,4.4047,4.4057,4.4066,4.4075,4.3807,4.4059,4.4058,4.4058,4.4057,4.4057,0,4.3314,4.3346,4.3428,4.3512,4.3581,4.3547,4.3611,4.3672,4.3766,4.382,4.3893,4.4004,4.4093,4.4127,4.4214,4.4274,4.4263,4.4297,4.4292,4.43,4.4104,4.4071,4.4304,4.4304,4.4304,4.4304,4.4304,4.4304,4.3453,4.3582,4.3588,4.3738,4.3769,4.3873,4.3912,4.3963,4.4006,4.4131,4.4204,4.4225,4.4271,4.4361,4.4441,4.4448,4.4481,4.4521,4.4523,4.4339,4.4314,4.429,4.4259,4.4528,4.4529,4.4712,4.4713,4.4715]},{"header":{"parameterUnit":"m.s-1","parameterCategory":1,"la1":30.2991,"la2":30.254,"lo1":-89.0895,"lo2":-89.0444,"dy":0.0017,"dx":0.0017,"nx":28,"ny":28,"refTime":"2025-07-09T21:00:00:Z","depth":0,"parameterNumber":3,"parameterNumberName":"V-component_of_WINDS"},"data":[0,0,0,0,0,0,0,0,0,0,0,0,0,0,0,0,0,0,0,0,0,0,0,0,0,0,0,0,0,0,0,0,0,0,0,0,0,0,0,0,0,0,0,0,0,0,0,0,0,0,0,0,0,0,0,0,0,0,-0.4905,-0.4907,0,-0.5016,-0.5018,-0.5019,-0.5065,-0.5065,-0.5065,-0.5064,-0.5179,-0.5182,-0.5186,0,0,0,0,0,0,0,0,0,0,0,0,0,-0.4735,-0.4738,-0.4905,-0.4907,-0.4908,-0.5016,-0.5018,-0.5019,-0.5065,-0.5065,-0.5065,-0.5064,-0.5178,-0.5182,-0.5186,0,0,0,0,0,0,0,0,0,0,0,0,0,-0.4824,-0.4739,-0.4905,-0.4944,-0.4949,-0.5016,-0.5018,-0.502,-0.5065,-0.5065,-0.5064,-0.5064,-0.5177,-0.5182,-0.5186,-0.5224,0,0,-0.5201,-0.5204,0,0,0,0,0,0,0,0,-0.4819,-0.483,-0.4937,-0.4941,-0.4947,-0.5026,-0.5,-0.5088,-0.5065,-0.5021,-0.5064,-0.5064,-0.5129,-0.5138,-0.5159,-0.5229,-0.5234,-0.5202,-0.5205,-0.5207,-0.5208,0,0,0,0,0,0,0,-0.4813,-0.4826,-0.4949,-0.4938,-0.4944,-0.4957,-0.4969,-0.5017,-0.5075,-0.5025,-0.5028,-0.5041,-0.5131,-0.5154,-0.5162,-0.5236,-0.5202,-0.5206,-0.5209,-0.5211,-0.5344,-0.5344,0,0,0,0,0,0,-0.48,-0.482,-0.4946,-0.4953,-0.4881,-0.496,-0.4974,-0.5001,-0.5075,-0.5086,-0.5041,-0.5043,-0.5146,-0.5156,-0.5166,-0.5216,-0.5207,-0.5212,-0.5214,-0.5343,-0.5344,-0.5345,0,0,0,0,0,0,-0.4796,-0.4811,-0.4941,-0.4888,-0.4905,-0.4963,-0.4994,-0.5004,-0.5027,-0.5087,-0.5098,-0.5054,-0.5146,-0.516,-0.521,-0.5221,-0.5214,-0.5218,-0.5343,-0.5343,-0.5344,-0.5314,0,0,0,0,0,0,-0.4791,-0.4809,-0.4823,-0.4887,-0.4908,-0.4981,-0.4995,-0.5006,-0.5035,-0.5038,-0.5102,-0.5112,-0.5147,-0.5202,-0.5214,-0.5227,-0.5222,-0.5342,-0.5343,-0.5344,-0.5315,-0.5314,-0.5314,0,0,0,0,0,-0.4785,-0.481,-0.4823,-0.4838,-0.4926,-0.4982,-0.4994,-0.5033,-0.5035,-0.5051,-0.509,-0.511,-0.5217,-0.5207,-0.5221,-0.5235,-0.5341,-0.5343,-0.5344,-0.5315,-0.5314,-0.5314,0,0,0,0,0,0,-0.4745,-0.4819,-0.4835,-0.4882,-0.4925,-0.499,-0.501,-0.5031,-0.5075,-0.5076,-0.5123,-0.5137,-0.5183,-0.5215,-0.5201,-0.5276,-0.5281,-0.5285,-0.5254,-0.5254,-0.5254,-0.5245,-0.5226,0,0,0,0,0,-0.4742,-0.478,-0.4843,-0.4878,-0.49,-0.4951,-0.4976,-0.5003,-0.505,-0.5069,-0.5112,-0.5157,-0.5202,-0.523,-0.5274,-0.532,-0.5335,-0.5337,-0.5336,-0.5336,-0.5339,-0.5367,-0.5369,-0.5349,-0.5349,-0.5349,0,0,-0.4736,-0.4781,-0.4802,-0.4872,-0.4909,-0.4948,-0.4966,-0.5007,-0.5037,-0.5075,-0.5125,-0.5158,-0.5213,-0.5261,-0.5285,-0.5288,-0.5348,-0.5337,-0.5336,-0.534,-0.5369,-0.537,-0.5372,-0.535,-0.535,-0.5349,0,0,-0.4744,-0.4782,-0.4816,-0.4853,-0.4909,-0.4943,-0.4951,-0.5013,-0.5036,-0.5087,-0.5117,-0.5155,-0.5229,-0.5267,-0.5296,-0.5321,-0.5342,-0.5334,-0.5331,-0.5358,-0.536,-0.5361,-0.5371,-0.5374,-0.5337,-0.5337,-0.5337,0,-0.4729,-0.4789,-0.4831,-0.487,-0.4901,-0.4938,-0.4973,-0.5007,-0.5074,-0.5095,-0.5099,-0.5194,-0.5233,-0.5292,-0.5298,-0.532,-0.5331,-0.5326,-0.5356,-0.5358,-0.536,-0.537,-0.5373,-0.5335,-0.5336,-0.5336,-0.5336,0,-0.4769,-0.481,-0.4831,-0.4895,-0.4928,-0.4965,-0.5013,-0.5042,-0.5066,-0.51,-0.5153,-0.5201,-0.5256,-0.5272,-0.5296,-0.5334,-0.5335,-0.5347,-0.5352,-0.536,-0.537,-0.5374,-0.5334,-0.5334,-0.5334,-0.5335,0,0,-0.4754,-0.4842,-0.4849,-0.4879,-0.4944,-0.4978,-0.5018,-0.5071,-0.5095,-0.5141,-0.5176,-0.5239,-0.5251,-0.5284,-0.5313,-0.5336,-0.5354,-0.5345,-0.5347,-0.5346,-0.5401,-0.5391,-0.5395,-0.5368,-0.5369,-0.537,-0.5396,0,-0.4772,-0.4844,-0.4883,-0.4939,-0.4979,-0.5015,-0.505,-0.5095,-0.5128,-0.5167,-0.5205,-0.5249,-0.5261,-0.5281,-0.5306,-0.5346,-0.5366,-0.5345,-0.5402,-0.5404,-0.5387,-0.54,-0.539,-0.5413,-0.54,-0.5401,-0.5402,0,-0.4802,-0.4847,-0.4907,-0.4969,-0.4987,-0.5017,-0.5071,-0.5107,-0.5159,-0.5182,-0.5219,-0.5248,-0.5293,-0.5295,-0.5358,-0.5343,-0.5369,-0.5393,-0.5395,-0.5401,-0.5403,-0.5407,-0.5421,-0.5424,-0.5408,-0.5408,-0.5407,0,-0.4786,-0.4862,-0.4908,-0.4933,-0.5006,-0.5027,-0.5058,-0.511,-0.514,-0.5187,-0.5207,-0.5259,-0.5287,-0.5327,-0.5369,-0.5367,-0.5428,-0.5434,-0.5449,-0.5448,-0.546,-0.5458,-0.5477,-0.5476,-0.5476,-0.5476,-0.5476,0,-0.4802,-0.4837,-0.4902,-0.493,-0.4971,-0.5017,-0.5057,-0.5091,-0.5137,-0.5173,-0.5209,-0.5242,-0.5296,-0.5337,-0.5371,-0.5418,-0.5431,-0.5451,-0.5459,-0.5448,-0.5445,-0.5465,-0.5465,-0.5477,-0.5477,-0.5477,-0.5477,0,-0.4791,-0.4836,-0.4888,-0.4954,-0.4971,-0.4998,-0.5055,-0.5084,-0.512,-0.5166,-0.5179,-0.5236,-0.5286,-0.5332,-0.5399,-0.5422,-0.547,-0.548,-0.5452,-0.5457,-0.5469,-0.5467,-0.5502,-0.5509,-0.5502,-0.5502,-0.5502,0,-0.4797,-0.4826,-0.4894,-0.4921,-0.4952,-0.4994,-0.5026,-0.5072,-0.5104,-0.5166,-0.5188,-0.524,-0.5285,-0.5363,-0.541,-0.5462,-0.5475,-0.5483,-0.5482,-0.547,-0.5475,-0.5473,-0.5477,-0.5482,-0.5482,-0.5482,-0.5482,0,-0.4805,-0.4826,-0.487,-0.4921,-0.4958,-0.5001,-0.5045,-0.5065,-0.512,-0.5154,-0.5205,-0.524,-0.5308,-0.536,-0.5418,-0.5451,-0.5476,-0.5482,-0.5488,-0.5476,-0.5459,-0.5469,-0.545,-0.5481,-0.5481,-0.5481,-0.5481,-0.5481,-0.4804,-0.4831,-0.4884,-0.4931,-0.497,-0.501,-0.5042,-0.5082,-0.5125,-0.5184,-0.5209,-0.5262,-0.5315,-0.5394,-0.5428,-0.547,-0.5475,-0.5484,-0.5487,-0.5488,-0.5486,-0.5452,-0.5481,-0.5481,-0.5481,-0.5481,-0.5481,0,-0.4814,-0.485,-0.4893,-0.4954,-0.4992,-0.5012,-0.5062,-0.5093,-0.5138,-0.5185,-0.5228,-0.5288,-0.5339,-0.5391,-0.5446,-0.547,-0.5483,-0.5482,-0.5481,-0.5489,-0.5478,-0.5467,-0.5471,-0.5471,-0.5471,-0.5471,-0.5471,-0.5471,-0.4823,-0.4871,-0.4898,-0.4965,-0.5002,-0.5053,-0.508,-0.5118,-0.5156,-0.5221,-0.5264,-0.5297,-0.5347,-0.5405,-0.5454,-0.5468,-0.5486,-0.5483,-0.55,-0.5489,-0.5489,-0.549,-0.548,-0.5486,-0.5487,-0.5508,-0.5508,-0.5508]}]]